Torna al catalogo

COSMOS 970 DEB

AttivoLEO
NORAD 10880·DEBRIS·🇷🇺 Russia

Lanciato Dec 21, 1977 da Baikonur Cosmodrome

Loading…

Prossimi Passaggi (prossime 24 ore)

TLE

AggiornatoSource: Space-Track

Epoca: Sep 14, 2026, 06:46 UTC

1 10880U 77121AB  26257.28219659  .00000169  00000-0  28790-3 0  9994
2 10880  65.8399 185.9099 0109949 180.5446 342.8898 13.66235022421649

Traccia COSMOS 970 DEB in tempo reale con AllMySat

Download on the App Store